Princeton/Rocky Hill (39N)
Princeton, NJ
Field Elevation: 128
Lat: 40°23.94N  Long: 74°39.54W
CTAF/Unicom Freq: 122.7250
   
     For Weather-by-Phone, call (609)-924-3901
Weather Advisories
8/20/2014 12:38 Z
Altimeter 29.99" Hg
Wind 160° @ 0 KT
Gusts --
Visibility 10 SM
Ceiling BKN038
Temperature 22° C (72° F)
Dewpoint 19° C (66° F)
Relative Humidity 83%
Density Altitude --
Condensation Altitude 1,800 feet
  Wind and Runways
Indicated Runway = 10
History
 
 
More Info
All DigiWx sites map
 
NOAA Forecast
 
Airport IQ 5010
(OCNJ) Ocean City
(PN44) Upper Gwynedd Heliport
 
about DigiWx
 
FAA Disclaimer: The data displayed is for advisory purposes only and is not to be used for flight planning or operations. For official data, please call (609)-924-3901 to hear the current automated AWOS voice message.
  METAR 39N 201238Z AUTO 16000KT 10SM BKN038 22/19 A2999